Weather History for Jackson Hawkins Field, MS

Change the Weather History Date:

Wednesday, March 20, 2013

  Actual Average (KJAN) Record (KJAN)
Temperature  
Mean Temperature 58 °F 58 °F  
Max Temperature 66 °F 70 °F 89 °F (1907)
Min Temperature 48 °F 46 °F 23 °F (1923)
Degree Days  
Heating Degree Days 7 8  
Month to date heating degree days 202  
Since 1 July heating degree days 2194  
Cooling Degree Days 0 1  
Month to date cooling degree days 17  
Year to date cooling degree days 27  
Growing Degree Days 8 (Base 50)    
Moisture  
Dew Point 27 °F    
Average Humidity 35    
Maximum Humidity 52    
Minimum Humidity 18    
Precipitation  
Precipitation 0.00 in 0.15 in 2.56 in (2005)
Month to date precipitation 3.20  
Year to date precipitation 12.93  
Sea Level Pressure  
Sea Level Pressure 30.11 in    
Wind  
Wind Speed 6 mph (North)    
Max Wind Speed 15 mph    
Max Gust Speed 22 mph    
Visibility 10 miles    
Events Rain    
T = Trace of Precipitation, MM = Missing Value Source: NWS Daily Summary

Daily Weather History Graph

Daily Weather History Graph

Search for Another Location

Airport:

Trip Planner

Search our weather history database for the weather conditions in past years. The results will help you decide how hot, cold, wet, or windy it might be!

Date:

Astronomy

Mar. 20, 2013 Rise Set
Actual Time 7:04 AM CDT 7:12 PM CDT
Civil Twilight 6:39 AM CDT 7:37 PM CDT
Nautical Twilight 6:11 AM CDT 8:05 PM CDT
Astronomical Twilight 5:42 AM CDT 8:34 PM CDT
Moon 1:05 PM CDT (3/20) 2:25 AM CDT (3/20)
Length of Visible Light 12h 57m
Length of Day
12h 08m
First Quarter, 59% of the Moon is Illuminated
Mar 20
First Quarter
Mar 27
Full
Apr 2
Last Quarter
Apr 10
New
Apr 18
First Quarter

Hourly Weather History & Observations

Time (CDT) Temp. Dew Point Humidity Pressure Visibility Wind Dir Wind Speed Gust Speed Precip Events Conditions
12:53 AM 55.9 °F 34.0 °F 44% 30.07 in 10.0 mi ENE 5.8 mph - N/A   Clear
1:53 AM 55.0 °F 33.1 °F 43% 30.08 in 10.0 mi NNE 6.9 mph - N/A   Clear
2:53 AM 54.0 °F 30.9 °F 41% 30.09 in 10.0 mi North 5.8 mph - N/A   Clear
3:53 AM 53.1 °F 30.9 °F 43% 30.10 in 10.0 mi North 8.1 mph - N/A   Overcast
4:53 AM 51.1 °F 34.0 °F 52% 30.12 in 10.0 mi North 4.6 mph - 0.00 in Rain Light Rain
5:53 AM 51.1 °F 32.0 °F 48% 30.12 in 10.0 mi Variable 4.6 mph - 0.00 in   Overcast
6:53 AM 51.1 °F 30.0 °F 44% 30.15 in 10.0 mi Calm Calm - N/A   Partly Cloudy
7:53 AM 50.0 °F 30.0 °F 46% 30.15 in 10.0 mi NE 3.5 mph - N/A   Clear
8:53 AM 51.1 °F 30.0 °F 44% 30.16 in 10.0 mi North 4.6 mph - N/A   Clear
10:53 AM 53.1 °F 26.1 °F 35% 30.20 in 10.0 mi NE 9.2 mph - N/A   Clear
11:53 AM 57.9 °F 26.1 °F 30% 30.20 in 10.0 mi North 8.1 mph - N/A   Clear
12:53 PM 62.1 °F 26.1 °F 25% 30.18 in 10.0 mi NE 8.1 mph - N/A   Clear
1:53 PM 64.9 °F 25.0 °F 22% 30.14 in 10.0 mi North 9.2 mph 16.1 mph N/A   Clear
2:53 PM 64.9 °F 19.9 °F 18% 30.10 in 10.0 mi NNW 8.1 mph 19.6 mph N/A   Clear
3:53 PM 66.0 °F 21.9 °F 19% 30.08 in 10.0 mi NW 11.5 mph 20.7 mph N/A   Clear
4:53 PM 64.9 °F 23.0 °F 20% 30.07 in 10.0 mi NNW 15.0 mph 21.9 mph N/A   Clear
5:53 PM 63.0 °F 24.1 °F 23% 30.06 in 10.0 mi NNW 8.1 mph - N/A   Clear
6:53 PM 60.1 °F 23.0 °F 24% 30.07 in 10.0 mi NNW 12.7 mph 18.4 mph N/A   Clear
7:53 PM 55.9 °F 23.0 °F 28% 30.08 in 10.0 mi North 5.8 mph - N/A   Clear
8:53 PM 54.0 °F 25.0 °F 33% 30.08 in 10.0 mi North 3.5 mph - N/A   Clear
9:53 PM 52.0 °F 27.0 °F 38% 30.08 in 10.0 mi North 3.5 mph - N/A   Clear
10:53 PM 51.1 °F 27.0 °F 39% 30.08 in 10.0 mi Calm Calm - N/A   Clear
11:53 PM 48.0 °F 28.9 °F 48% 30.06 in 10.0 mi Calm Calm - N/A   Clear